Macau International Airport
VMMC : rendu visible

Aérodrome :











RETROUVEZ-NOUS SUR...

 
LOGIN :

S'inscrire | Disclaimer

   EN    FR    IT 

 









Légende :    VFR   VFR Marginal   IFR   IFR Intensif   IFR Très Intensif
Visi : 
Plafond : 
>= 8 km
>= 3000ft
5 à 8 km
1000 à 3000 ft
1500m à 5 km
500 à 1000 ft
800 à 1500m
200 à 500 ft
< 800m
< 200 ft
Symboles :   Orages  Brouillard  Fortes neiges  Fortes précipitations  Vent > 20 kt







- Altitude de l'aérodrome : 20 ft
- Code IATA : MFM


VMMC - Macau International

DERNIER METAR :
  • 240800Z 16010KT 9999 FEW018 31/27 Q1005 NOSIG

METARs EXPIRÉS :
  • 240730Z 17011KT 9999 FEW018 32/27 Q1005 NOSIG
  • 240700Z 17012KT 9999 FEW018 32/26 Q1005 NOSIG
  • 240630Z 17011KT 9999 FEW018 32/27 Q1006 NOSIG
  • 240600Z 17012KT 9999 FEW020 32/27 Q1006 NOSIG
  • 240530Z 16011KT 9999 FEW018 32/27 Q1006 NOSIG

TAF TAF VMMC
Valide du 24 à 06h jusqu'au 25 à 12h UTC


240500Z 2406/2512 16010KT 9999 FEW015
FIR ZGZU / Asie



MET'MAP, la Météo Aéronautique d'un coup d'oeil ! - Copyright ORBIFLY Décembre 2007 - Disclaimer

ORBIFLY MET'MAP TEAM :

Programmation & Développement : Alexandra Zaïnal
Conception & Développement : Baudouin d'Aumeries
Co-Programmation & Développement : Marc-Olivier Méhu
Soutien technique & logistique : Manuel Goepfert

Contact : metmap@orbifly.com




SOURCES & CREDITS :

   NOAA       Earth
Advisory